Regional Weather Roundup
Issued by NWS

Home | Current Version | Previous Version | Text Only | Print | Product List | Glossary Off
Versions: 1 2 3 4 5 6 7 8 9 10 11 12 13 14 15 16 17 18 19 20 21 22 23 24 25 26 27 28 29 30 31 32 33 34 35 36 37 38 39 40 41 42 43 44 45 46 47 48 49 50

392
ASUS43 KLMK 280502
RWRKY
KENTUCKY REGIONAL WEATHER ROUNDUP
NATIONAL WEATHER SERVICE LOUISVILLE KY
100 AM EDT SUN MAY 28 2017

NOTE "FAIR" INDICATES FEW OR NO CLOUDS BELOW 12,000 FEET
WITH NO SIGNIFICANT WEATHER AND/OR OBSTRUCTIONS TO VISIBILITY.

KYZ001>023-026-027-061>063-070>075-280600-
WESTERN AND SOUTH CENTRAL KENTUCKY

CITY           SKY/WX    TMP DP  RH WIND       PRES   REMARKS
PADUCAH        RAIN      65  61  87 SE7       29.89F
HENDERSON      CLOUDY    66  62  87 S12       29.85R
OWENSBORO      CLOUDY    66  63  90 SW14      29.85R
HOPKINSVILLE   LGT RAIN  64  64 100 W13       29.95R
BOWLING GREEN  CLOUDY    66  64  93 S6        29.88F
GLASGOW        NOT AVBL
$$

KYZ024-025-028>034-038-045-046-053-280600-
NORTH CENTRAL KENTUCKY

CITY           SKY/WX    TMP DP  RH WIND       PRES   REMARKS
LOUISVILLE/SDF CLOUDY    67  63  87 SE6       29.82F
LOUISVILLE/LOU MOCLDY    67  64  90 S3        29.84F
FORT KNOX      CLOUDY    63  63  99 S7        29.83F
$$

KYZ035>037-039>044-047>052-055>060-089>105-280600-
NORTHEAST KENTUCKY

CITY           SKY/WX    TMP DP  RH WIND       PRES   REMARKS
LEXINGTON      PTCLDY    65  61  87 SW6       29.86F
COVINGTON      CLOUDY    68  63  84 SW9       29.84S
FRANKFORT      CLOUDY    65  61  87 S5        29.84F
$$

KYZ054-064>069-076>088-106>120-280600-
SOUTHEAST KENTUCKY

CITY           SKY/WX    TMP DP  RH WIND       PRES   REMARKS
JACKSON        CLOUDY    65  64  97 CALM      29.89S
LONDON         NOT AVBL
SOMERSET       PTCLDY    61  61 100 E3        29.90F
MIDDLESBORO    LGT RAIN  63  63 100 CALM      29.95R
MONTICELLO     CLOUDY    63  62  97 NE8       29.90F
$$





USA.gov is the U.S. government's official web portal to all federal, state and local government web resources and services.